Temp
16 16 16 17 17 17 16 17 17 17 17 17 17 17 16 15 15 16 14 14 14 13 12 11 11 11 11 11 11 11 11 10 10 11 11 10 10 11 11 11 10 10 10 10
16 16 16 17 18 17 16 17 17 17 17 15 17 17 17 16 16 16 15 15 15 14 13 12 12 12 12 11 10 10 11 11 11 10 10 10 10 11 11 11 10 10 10 10
16 17 17 17 18 17 17 17 17 18 18 16 17 17 17 16 16 16 16 15 14 15 15 13 13 13 12 12 11 10 11 11 11 10 10 11 11 11 11 10 10 10 10 10
16 17 17 17 17 17 17 17 18 18 18 17 17 17 18 17 17 17 16 16 16 15 14 14 15 14 14 13 11 11 10 11 11 11 10 10 10 10 11 11 11 10 10 10
16 17 17 17 18 18 18 18 18 18 18 17 18 17 18 17 17 17 17 16 17 17 15 15 15 15 14 13 12 12 11 11 11 10 10 10 10 10 11 11 11 10 10 10
16 17 17 17 18 18 19 19 18 17 17 16 19 18 18 17 18 18 17 17 17 17 15 16 15 14 15 14 13 13 12 11 12 11 11 11 11 11 11 10 11 10 10 10
17 17 17 18 18 19 19 19 18 15 14 15 19 19 19 18 19 18 17 18 18 17 16 16 16 16 15 15 14 13 13 12 12 12 11 11 11 12 11 10 11 11 10 10
16 17 18 18 18 19 19 18 18 15 13 17 18 19 20 18 18 18 18 18 18 17 17 17 17 16 16 15 14 13 13 13 12 13 12 12 12 12 11 11 11 10 11 10
16 17 18 18 18 18 18 18 18 18 17 17 18 18 19 18 18 19 18 18 18 17 17 16 17 16 16 15 14 14 14 13 12 13 13 13 13 13 12 12 11 11 11 10
16 16 18 18 18 18 18 18 18 18 15 16 17 18 19 18 18 18 18 18 18 18 17 16 16 16 16 15 15 14 14 13 13 14 13 13 13 13 12 12 12 11 11 11
17 17 18 18 19 19 18 18 18 18 18 14 12 17 18 19 18 18 18 18 18 17 17 16 16 16 16 15 15 14 14 14 13 13 14 14 13 13 13 13 12 12 11 11
18 17 18 18 19 19 19 18 19 18 18 18 18 15 17 17 17 18 18 18 17 17 16 16 16 16 15 15 15 14 14 14 13 13 13 13 13 13 13 13 13 12 12 11
18 18 18 18 19 18 19 19 19 19 19 19 16 13 16 17 17 17 17 17 16 16 16 16 16 15 15 15 14 14 14 13 13 13 12 12 12 13 13 13 13 12 12 11
18 18 18 18 18 18 18 19 19 19 19 17 17 15 16 16 16 15 15 15 16 15 16 16 15 15 15 14 15 14 14 13 13 12 12 12 12 12 13 13 13 12 12 12
18 18 18 18 18 18 19 19 19 19 19 19 15 15 16 15 15 15 15 15 15 15 15 15 15 15 15 14 14 14 14 14 13 12 12 12 12 12 12 12 13 13 12 12
18 18 17 18 18 18 18 18 19 19 19 18 17 17 16 15 15 16 15 15 14 14 15 16 15 15 15 15 14 14 14 14 14 14 13 13 12 12 12 12 12 12 12 12
18 18 18 18 19 17 17 15 19 19 18 19 18 18 18 17 16 16 16 15 14 14 15 15 14 14 15 15 14 14 14 14 14 14 14 14 13 13 13 12 12 12 12 11
18 18 18 18 18 14 15 15 16 17 17 17 18 18 17 17 17 16 15 14 14 15 14 15 15 15 14 14 14 14 14 14 14 14 14 14 14 14 13 13 12 11 12 12
18 18 18 17 17 15 16 17 16 15 16 16 16 17 16 16 15 14 14 15 14 14 14 14 14 14 14 14 13 13 13 14 14 14 14 14 14 13 13 13 12 12 11 11
18 18 18 17 16 15 16 15 16 15 15 14 15 16 16 16 15 14 13 14 14 14 14 14 14 13 13 12 12 13 13 13 13 13 13 13 13 13 13 12 12 12 11 11
17 17 17 17 15 15 16 15 15 14 13 15 14 15 15 16 15 15 14 14 14 14 13 13 13 13 12 12 12 12 12 12 12 11 11 12 12 12 12 12 11 12 11 11
16 16 15 15 14 15 16 16 15 14 14 15 14 14 14 14 14 14 14 14 14 13 13 13 13 12 12 11 11 11 10 10 10 11 10 10 11 11 11 11 11 11 11 11
14 14 15 15 14 14 15 14 14 14 14 14 14 14 14 14 14 13 13 13 12 12 12 12 11 11 11 10 10 10 9 10 11 10 10 10 10 10 11 10 10 10 11 11
14 14 14 14 13 13 13 13 13 13 12 12 13 13 13 13 13 12 12 12 12 12 11 11 11 11 10 10 10 9 9 10 10 11 11 10 11 11 11 11 11 10 10 10
13 14 14 14 13 13 13 12 13 13 13 13 13 12 12 12 12 12 12 12 11 11 11 11 11 10 10 10 9 9 10 10 11 11 11 11 11 11 11 10 10 10 10 10
13 13 13 13 13 13 12 12 12 13 13 13 13 12 12 12 12 11 11 11 11 11 10 10 10 10 10 9 10 10 9 9 10 11 11 11 11 10 11 10 10 9 9 9
Height
3183 3186 3188 3190 3193 3197 3199 3199 3199 3198 3196 3197 3196 3195 3199 3198 3200 3200 3201 3203 3203 3204 3206 3207 3209 3210 3211 3211 3212 3212 3214 3216 3217 3217 3218 3219 3219 3220 3221 3220 3220 3219 3220 3221
3180 3180 3186 3189 3190 3193 3196 3196 3197 3197 3196 3198 3195 3194 3197 3198 3199 3198 3200 3201 3201 3202 3204 3205 3207 3209 3211 3212 3212 3212 3213 3215 3217 3217 3218 3219 3219 3219 3220 3220 3220 3219 3219 3220
3175 3179 3183 3186 3187 3189 3191 3192 3194 3194 3193 3196 3195 3193 3192 3197 3198 3197 3196 3198 3200 3201 3202 3203 3205 3207 3210 3212 3212 3212 3213 3214 3215 3216 3216 3217 3217 3218 3220 3219 3220 3219 3220 3219
3175 3177 3180 3183 3183 3185 3187 3189 3193 3192 3191 3191 3190 3191 3188 3192 3195 3195 3195 3196 3197 3199 3200 3202 3204 3206 3209 3212 3211 3212 3213 3213 3214 3214 3214 3215 3215 3216 3216 3217 3218 3219 3219 3218
3172 3174 3177 3180 3181 3182 3179 3186 3186 3188 3189 3191 3192 3188 3185 3190 3191 3191 3191 3191 3193 3195 3196 3200 3204 3205 3208 3211 3210 3211 3213 3213 3213 3213 3213 3212 3213 3215 3215 3216 3217 3218 3218 3218
3167 3171 3174 3175 3177 3179 3180 3183 3183 3186 3186 3189 3186 3184 3180 3181 3183 3185 3187 3188 3191 3193 3194 3199 3203 3203 3206 3209 3209 3211 3211 3212 3212 3213 3212 3212 3213 3213 3214 3215 3216 3216 3217 3217
3165 3165 3168 3171 3172 3174 3176 3177 3180 3186 3188 3184 3181 3180 3177 3179 3178 3181 3184 3190 3192 3190 3193 3197 3201 3201 3203 3205 3208 3207 3210 3210 3210 3210 3211 3211 3212 3213 3214 3215 3216 3217 3217 3217
3163 3163 3163 3166 3167 3169 3172 3174 3176 3183 3183 3179 3180 3176 3175 3177 3178 3179 3184 3186 3186 3186 3190 3195 3198 3201 3202 3203 3205 3207 3209 3210 3210 3209 3210 3210 3210 3212 3213 3214 3216 3216 3217 3215
3160 3159 3160 3163 3166 3169 3168 3170 3175 3176 3176 3178 3177 3173 3174 3175 3175 3178 3179 3181 3182 3184 3187 3193 3197 3200 3202 3203 3204 3204 3208 3209 3210 3209 3209 3210 3210 3211 3212 3213 3214 3215 3215 3214
3159 3160 3158 3159 3161 3164 3164 3168 3171 3172 3175 3177 3173 3171 3171 3174 3177 3180 3180 3181 3182 3184 3187 3192 3196 3199 3201 3202 3203 3205 3207 3207 3209 3209 3209 3209 3210 3211 3212 3212 3213 3213 3213 3213
3155 3159 3155 3154 3155 3157 3162 3163 3167 3169 3171 3172 3174 3171 3170 3174 3177 3180 3182 3184 3183 3185 3187 3191 3195 3198 3199 3202 3203 3204 3206 3207 3208 3209 3209 3209 3209 3210 3211 3211 3212 3211 3212 3212
3152 3155 3155 3156 3155 3156 3157 3160 3163 3165 3168 3167 3166 3173 3172 3179 3178 3182 3184 3186 3185 3186 3188 3190 3193 3196 3199 3201 3200 3202 3204 3206 3207 3208 3208 3209 3209 3209 3210 3210 3211 3210 3211 3210
3150 3153 3153 3154 3154 3155 3156 3157 3159 3161 3164 3163 3164 3175 3171 3175 3177 3178 3181 3187 3188 3191 3188 3190 3192 3195 3197 3198 3199 3199 3201 3204 3205 3205 3205 3206 3207 3208 3208 3209 3208 3208 3209 3209
3148 3150 3150 3151 3150 3152 3154 3155 3157 3160 3161 3161 3164 3169 3170 3172 3173 3175 3176 3180 3189 3190 3190 3190 3190 3191 3194 3196 3197 3197 3198 3199 3200 3200 3201 3202 3203 3204 3204 3205 3205 3205 3205 3205
3145 3148 3149 3149 3150 3151 3151 3152 3154 3156 3157 3157 3164 3164 3167 3168 3171 3172 3179 3182 3186 3190 3191 3191 3191 3191 3192 3192 3194 3194 3194 3194 3195 3195 3195 3196 3198 3199 3199 3199 3200 3201 3201 3201
3143 3147 3146 3147 3149 3150 3149 3149 3149 3152 3154 3154 3159 3162 3165 3169 3174 3171 3175 3182 3183 3189 3190 3190 3192 3192 3192 3191 3191 3191 3190 3190 3190 3190 3190 3190 3191 3191 3192 3194 3195 3195 3196 3196
3141 3144 3146 3145 3146 3148 3151 3151 3147 3149 3151 3151 3155 3158 3162 3165 3169 3173 3173 3176 3180 3183 3187 3189 3190 3190 3190 3190 3189 3188 3187 3186 3185 3184 3184 3182 3182 3183 3185 3186 3186 3187 3187 3188
3139 3143 3145 3144 3144 3154 3158 3158 3153 3153 3154 3157 3159 3160 3164 3166 3168 3169 3170 3175 3179 3182 3183 3185 3188 3189 3189 3188 3187 3185 3183 3182 3182 3180 3179 3178 3177 3177 3177 3178 3178 3180 3181 3182
3141 3143 3146 3147 3148 3156 3157 3157 3154 3155 3159 3159 3161 3161 3162 3163 3164 3166 3169 3174 3179 3181 3182 3183 3185 3185 3185 3184 3183 3182 3180 3178 3176 3175 3174 3173 3173 3172 3172 3173 3174 3175 3174 3175
3139 3140 3144 3144 3146 3150 3152 3152 3155 3155 3163 3160 3159 3160 3160 3160 3160 3164 3168 3171 3175 3179 3180 3181 3182 3181 3181 3179 3178 3176 3173 3172 3170 3168 3168 3167 3167 3166 3165 3167 3166 3167 3166 3167
3137 3138 3140 3142 3145 3150 3150 3151 3151 3156 3165 3158 3163 3162 3162 3162 3163 3164 3167 3172 3175 3177 3177 3178 3179 3178 3176 3174 3172 3170 3168 3167 3165 3163 3162 3161 3161 3160 3161 3161 3160 3161 3160 3159
3134 3137 3140 3143 3146 3150 3149 3152 3154 3156 3156 3158 3161 3163 3165 3166 3168 3168 3169 3170 3171 3172 3172 3174 3175 3174 3172 3169 3167 3165 3164 3162 3160 3159 3158 3156 3155 3155 3154 3154 3153 3153 3153 3152
3136 3138 3139 3143 3145 3147 3149 3153 3155 3153 3155 3156 3161 3161 3164 3166 3166 3165 3165 3165 3166 3167 3167 3169 3168 3168 3165 3163 3163 3162 3160 3158 3155 3153 3151 3149 3147 3147 3147 3146 3146 3145 3145 3145
3136 3138 3140 3142 3146 3147 3150 3153 3155 3156 3152 3155 3157 3159 3162 3163 3164 3163 3164 3164 3164 3165 3164 3163 3162 3162 3161 3161 3160 3158 3154 3150 3147 3145 3144 3141 3139 3139 3137 3138 3137 3136 3136 3136
3137 3138 3138 3140 3143 3147 3149 3151 3152 3154 3156 3159 3158 3156 3158 3159 3162 3163 3163 3161 3161 3162 3162 3161 3160 3159 3159 3158 3156 3153 3148 3143 3140 3137 3135 3133 3131 3130 3129 3128 3127 3126 3127 3127
3133 3133 3140 3142 3143 3145 3148 3150 3150 3152 3155 3156 3157 3158 3158 3159 3158 3158 3157 3157 3159 3160 3158 3156 3155 3154 3153 3152 3149 3144 3140 3136 3133 3131 3128 3126 3124 3121 3120 3119 3118 3117 3117 3117
Wind_Speed
20 22 23 20 16 9 10 19 6 8 9 9 14 10 17 22 22 16 16 13 10 12 12 19 20 18 19 17 7 5 9 12 15 12 8 5 6 5 3 2 3 9 4 6
16 25 22 20 19 13 17 19 13 5 13 16 5 16 17 17 12 18 21 14 10 8 15 20 21 17 13 6 4 5 6 8 10 13 11 9 9 6 6 2 2 2 2 0
15 13 21 20 13 14 18 18 17 7 13 12 13 15 16 25 14 21 21 12 17 15 7 14 14 11 7 8 4 3 4 4 7 13 13 11 9 7 2 5 1 1 3 2
13 10 11 12 18 17 26 22 20 14 12 23 10 7 14 21 24 20 19 19 16 19 18 10 2 8 4 5 3 3 3 4 7 10 10 9 8 7 4 2 5 3 1 2
14 10 15 19 18 14 23 19 22 22 16 23 7 7 5 17 21 26 15 18 17 18 23 12 3 4 2 2 2 1 3 4 5 6 7 7 7 6 2 3 3 2 2 6
16 15 19 16 14 16 16 9 16 26 23 10 7 9 9 29 16 24 13 19 15 20 27 17 7 1 1 3 2 2 2 7 7 5 6 5 6 4 2 3 2 5 6 9
16 19 17 19 14 11 13 8 6 5 6 7 6 5 5 15 12 21 17 18 19 22 27 16 7 3 5 2 7 2 5 4 10 7 5 4 5 4 5 7 1 2 5 6
13 11 22 17 15 16 14 8 8 5 2 4 13 6 14 16 16 18 24 28 21 21 24 17 5 5 6 3 9 8 5 2 8 7 5 5 5 6 7 7 6 6 6 5
4 13 9 17 17 14 20 19 15 18 7 3 7 7 6 11 12 16 16 19 19 19 23 22 8 3 5 2 7 6 7 4 6 5 5 3 5 6 7 6 5 5 4 4
17 22 10 17 22 21 11 21 11 5 4 3 4 5 9 19 17 22 20 15 9 9 12 21 9 5 3 6 3 6 6 2 2 7 5 3 4 4 6 5 3 2 2 3
20 22 15 9 22 22 20 18 14 12 8 7 3 1 9 16 24 21 19 13 13 12 14 20 11 7 5 7 8 5 9 6 3 5 6 5 4 4 3 4 2 1 1 3
17 12 12 4 21 16 13 13 17 15 6 2 6 4 18 17 20 13 5 1 14 15 16 14 12 12 11 11 10 11 10 11 6 4 5 7 8 8 7 5 3 3 1 3
16 11 7 8 14 21 15 14 14 15 15 16 8 7 24 26 20 17 16 12 16 20 17 14 15 14 15 15 14 15 17 12 11 10 9 9 10 12 9 8 9 8 8 7
17 8 8 11 4 11 15 16 18 13 12 4 25 28 32 27 24 20 19 19 16 13 17 16 14 16 20 19 18 18 17 17 16 16 16 16 15 14 15 16 15 13 12 11
11 10 4 6 10 3 6 11 13 14 11 8 38 40 34 28 24 15 15 21 16 15 17 15 15 17 19 19 17 16 19 20 21 22 23 22 21 19 17 21 22 20 18 17
16 12 3 9 9 5 17 8 13 15 5 22 36 36 36 36 30 8 11 18 14 17 19 13 14 16 11 9 8 9 11 13 16 18 23 24 23 22 19 19 21 23 22 20
20 12 5 5 14 9 17 33 5 8 13 18 35 30 26 30 25 14 7 20 18 15 14 12 11 11 10 8 9 8 8 9 11 12 14 16 19 20 18 18 19 21 22 23
22 11 7 5 2 6 9 16 25 12 13 16 15 10 9 14 12 12 23 22 17 16 13 9 6 6 9 10 14 17 18 18 15 15 16 15 17 19 20 22 23 25 25 27
19 11 7 7 6 12 13 5 17 16 8 7 8 13 16 19 19 19 23 19 10 11 12 9 9 11 13 13 13 15 16 19 22 24 22 20 19 19 20 22 22 24 26 26
19 16 11 14 6 2 3 11 14 7 9 3 9 7 7 6 18 25 23 17 11 13 12 11 10 10 10 11 14 17 17 17 19 21 23 24 23 24 24 25 26 27 25 25
11 6 7 14 6 3 4 3 4 11 6 1 13 8 6 6 11 18 20 19 13 16 14 14 12 12 10 13 18 20 16 14 14 14 16 20 21 22 24 25 26 25 27 28
7 8 14 7 6 4 9 4 6 14 12 13 17 7 5 10 12 18 16 14 17 20 18 17 16 15 18 21 25 26 27 25 22 20 20 20 20 20 21 23 25 27 28 29
8 11 9 7 9 13 11 13 15 10 16 9 6 9 10 9 15 13 16 18 19 18 19 20 21 20 23 27 30 31 31 26 24 24 25 25 25 24 22 24 25 26 28 29
11 11 20 18 18 17 12 10 10 10 11 5 5 7 7 10 16 15 20 19 20 19 17 19 20 21 25 30 32 34 33 29 26 22 20 25 28 27 27 24 24 26 26 28
10 13 13 19 24 20 17 14 11 11 15 10 7 7 9 14 15 18 14 16 16 17 18 19 23 26 28 30 29 35 30 29 26 24 22 22 27 28 27 28 27 27 24 25
13 12 15 20 24 20 21 19 14 15 16 14 11 12 13 13 20 19 16 14 13 16 19 22 24 25 27 30 38 33 35 37 31 25 24 22 21 23 25 25 26 26 28 29
Wind_Direction
210 217 216 224 208 241 251 284 280 225 230 300 335 219 211 222 234 250 244 255 232 218 209 228 236 258 254 267 250 251 222 214 226 230 220 232 256 285 346 170 214 238 319 337
203 218 219 231 220 246 279 257 180 211 229 256 248 206 206 194 228 257 253 244 242 223 218 224 237 252 242 224 245 287 250 228 222 225 215 224 247 287 299 183 123 70 232 299
223 218 219 223 217 245 262 243 188 345 262 252 201 220 239 215 210 234 231 242 254 251 241 218 229 242 235 188 173 304 242 224 198 209 218 235 255 278 255 212 197 340 238 91
228 168 201 228 251 257 270 251 218 251 254 238 230 238 290 227 226 227 220 242 239 249 241 233 244 242 249 177 185 273 306 226 211 217 226 242 250 263 263 253 197 175 158 285
216 222 231 240 241 261 277 245 214 232 234 227 260 248 285 190 228 213 232 237 228 239 239 262 316 69 195 163 141 81 2 298 243 223 220 232 244 245 264 47 87 248 280 254
241 240 248 251 258 252 253 272 215 219 220 246 255 218 200 190 219 211 223 226 215 231 236 250 263 221 332 249 241 24 357 317 302 257 231 226 235 205 177 208 276 229 260 274
236 237 241 242 256 240 230 235 171 192 192 220 181 212 197 211 214 232 239 208 218 216 224 242 250 305 354 295 270 342 27 325 305 285 258 224 214 201 168 199 186 219 244 268
237 257 210 212 228 230 231 237 213 196 198 250 245 255 314 197 223 226 210 212 220 212 224 228 241 340 359 331 285 283 332 333 290 292 260 203 197 169 170 192 206 227 243 270
227 249 242 231 232 230 234 229 232 249 273 242 264 273 218 194 187 176 183 198 223 224 219 223 206 304 1 24 297 309 313 310 275 286 277 210 188 165 164 186 197 231 272 311
241 260 277 289 247 235 246 218 246 230 169 208 250 267 190 193 177 161 169 178 183 187 188 213 205 252 298 357 343 268 263 300 297 286 257 226 188 189 173 167 182 244 308 309
221 246 283 316 184 215 218 226 241 259 254 160 190 74 213 187 183 185 180 185 269 193 166 194 203 251 286 312 303 285 267 283 338 341 270 238 212 211 190 165 195 187 62 313
230 242 252 283 214 223 236 234 234 241 230 239 187 13 149 160 150 168 193 20 179 166 170 188 206 227 255 274 272 284 279 283 300 297 311 254 238 231 211 212 229 253 268 291
237 213 249 287 242 236 229 225 232 261 277 283 147 141 149 148 141 124 119 127 191 179 178 194 210 216 231 256 262 267 271 279 280 281 282 276 262 259 260 244 245 253 261 268
198 220 236 264 228 200 234 246 228 261 287 171 140 146 150 153 149 148 160 141 173 174 190 200 212 216 224 234 261 263 262 261 262 265 266 269 271 262 254 259 259 263 274 283
190 206 229 226 201 273 243 251 237 258 270 176 148 147 153 150 145 124 119 141 158 173 184 205 221 229 247 256 257 258 257 260 262 260 262 263 269 272 260 252 258 265 273 277
203 199 73 204 214 131 22 292 266 257 216 157 164 155 158 150 138 140 154 171 168 202 216 226 244 249 269 267 267 266 270 272 268 266 269 268 264 267 265 264 260 264 268 273
184 184 211 81 153 32 43 35 60 186 177 178 175 183 191 183 187 242 246 193 183 204 225 223 235 244 259 278 283 285 296 293 288 282 268 264 262 261 262 267 264 260 267 266
180 191 219 330 300 69 89 61 71 89 124 162 188 188 199 200 217 205 188 184 187 204 205 214 232 268 267 268 272 278 288 290 284 278 276 274 260 257 256 254 246 257 262 268
183 201 204 198 187 134 144 88 29 131 104 111 144 149 164 186 187 175 188 182 172 195 208 231 250 270 280 281 285 290 289 286 283 281 276 270 263 258 255 257 261 260 263 261
204 229 230 171 146 163 130 111 145 49 324 198 178 155 135 163 209 185 188 187 176 203 220 244 273 307 298 302 311 314 308 294 279 271 268 269 266 265 261 257 261 265 260 260
176 151 114 169 118 107 129 165 150 162 242 306 148 68 30 105 145 172 180 196 205 219 245 254 264 284 298 320 329 332 326 316 300 292 286 277 275 273 271 267 265 266 266 270
141 115 122 129 110 151 145 199 158 122 147 151 159 116 141 177 189 189 204 228 236 243 273 266 270 298 320 333 335 341 334 320 310 300 289 285 282 279 278 279 278 276 274 276
87 99 114 140 134 139 171 143 139 176 224 201 315 224 166 193 217 220 227 242 241 246 266 281 296 309 323 328 330 332 329 318 301 287 281 274 274 276 274 276 275 273 274 272
154 134 117 112 128 134 136 160 179 169 138 125 163 160 193 224 211 216 228 227 240 261 282 293 290 299 309 314 321 325 318 309 302 296 284 269 270 270 275 275 275 277 273 274
171 147 154 147 167 155 159 174 195 200 193 212 166 200 212 174 202 214 228 245 259 272 273 277 287 296 304 307 309 311 311 315 306 304 296 273 265 270 269 269 271 275 273 272
148 163 167 160 169 188 185 186 196 225 240 228 234 186 189 195 194 201 211 228 241 253 266 276 285 291 294 296 302 311 317 316 311 307 299 291 281 273 268 265 267 271 273 272